Datum;Zeit;EmZCH;EmZD;;;;;;;
01.07.2020;00:00 - 01:00;47;24;;;;;;;
01.07.2020;01:00 - 02:00;19;5;;;;;;;
01.07.2020;02:00 - 03:00;14;8;;;;;;;
01.07.2020;03:00 - 04:00;6;1;;;;;;;
01.07.2020;04:00 - 05:00;21;2;;;;;;;
01.07.2020;05:00 - 06:00;67;21;;;;;;;
01.07.2020;06:00 - 07:00;207;48;;;;;;;
01.07.2020;07:00 - 08:00;271;117;;;;;;;
01.07.2020;08:00 - 09:00;214;243;;;;;;;
01.07.2020;09:00 - 10:00;236;297;;;;;;;
01.07.2020;10:00 - 11:00;264;324;;;;;;;
01.07.2020;11:00 - 12:00;352;315;;;;;;;
01.07.2020;12:00 - 13:00;274;289;;;;;;;
01.07.2020;13:00 - 14:00;268;313;;;;;;;
01.07.2020;14:00 - 15:00;275;302;;;;;;;
01.07.2020;15:00 - 16:00;338;338;;;;;;;
01.07.2020;16:00 - 17:00;341;360;;;;;;;
01.07.2020;17:00 - 18:00;363;497;;;;;;;
01.07.2020;18:00 - 19:00;337;362;;;;;;;
01.07.2020;19:00 - 20:00;316;254;;;;;;;
01.07.2020;20:00 - 21:00;256;145;;;;;;;
01.07.2020;21:00 - 22:00;203;115;;;;;;;
01.07.2020;22:00 - 23:00;159;73;;;;;;;
01.07.2020;23:00 - 00:00;89;59;;;;;;;
02.07.2020;00:00 - 01:00;43;22;;;;;;;
02.07.2020;01:00 - 02:00;25;12;;;;;;;
02.07.2020;02:00 - 03:00;10;5;;;;;;;
02.07.2020;03:00 - 04:00;7;5;;;;;;;
02.07.2020;04:00 - 05:00;17;5;;;;;;;
02.07.2020;05:00 - 06:00;76;16;;;;;;;
02.07.2020;06:00 - 07:00;193;47;;;;;;;
02.07.2020;07:00 - 08:00;285;154;;;;;;;
02.07.2020;08:00 - 09:00;251;238;;;;;;;
02.07.2020;09:00 - 10:00;198;318;;;;;;;
02.07.2020;10:00 - 11:00;267;334;;;;;;;
02.07.2020;11:00 - 12:00;308;310;;;;;;;
02.07.2020;12:00 - 13:00;316;312;;;;;;;
02.07.2020;13:00 - 14:00;306;342;;;;;;;
02.07.2020;14:00 - 15:00;355;329;;;;;;;
02.07.2020;15:00 - 16:00;311;404;;;;;;;
02.07.2020;16:00 - 17:00;403;463;;;;;;;
02.07.2020;17:00 - 18:00;428;531;;;;;;;
02.07.2020;18:00 - 19:00;382;495;;;;;;;
02.07.2020;19:00 - 20:00;317;282;;;;;;;
02.07.2020;20:00 - 21:00;257;164;;;;;;;
02.07.2020;21:00 - 22:00;257;112;;;;;;;
02.07.2020;22:00 - 23:00;197;86;;;;;;;
02.07.2020;23:00 - 00:00;93;49;;;;;;;
03.07.2020;00:00 - 01:00;43;29;;;;;;;
03.07.2020;01:00 - 02:00;20;9;;;;;;;
03.07.2020;02:00 - 03:00;17;9;;;;;;;
03.07.2020;03:00 - 04:00;7;3;;;;;;;
03.07.2020;04:00 - 05:00;23;9;;;;;;;
03.07.2020;05:00 - 06:00;64;18;;;;;;;
03.07.2020;06:00 - 07:00;142;49;;;;;;;
03.07.2020;07:00 - 08:00;246;149;;;;;;;
03.07.2020;08:00 - 09:00;208;270;;;;;;;
03.07.2020;09:00 - 10:00;238;348;;;;;;;
03.07.2020;10:00 - 11:00;320;318;;;;;;;
03.07.2020;11:00 - 12:00;323;341;;;;;;;
03.07.2020;12:00 - 13:00;343;372;;;;;;;
03.07.2020;13:00 - 14:00;360;345;;;;;;;
03.07.2020;14:00 - 15:00;308;359;;;;;;;
03.07.2020;15:00 - 16:00;379;434;;;;;;;
03.07.2020;16:00 - 17:00;425;430;;;;;;;
03.07.2020;17:00 - 18:00;405;516;;;;;;;
03.07.2020;18:00 - 19:00;365;406;;;;;;;
03.07.2020;19:00 - 20:00;346;291;;;;;;;
03.07.2020;20:00 - 21:00;313;224;;;;;;;
03.07.2020;21:00 - 22:00;269;144;;;;;;;
03.07.2020;22:00 - 23:00;230;113;;;;;;;
03.07.2020;23:00 - 00:00;159;94;;;;;;;
04.07.2020;00:00 - 01:00;100;74;;;;;;;
04.07.2020;01:00 - 02:00;65;49;;;;;;;
04.07.2020;02:00 - 03:00;46;31;;;;;;;
04.07.2020;03:00 - 04:00;27;15;;;;;;;
04.07.2020;04:00 - 05:00;14;13;;;;;;;
04.07.2020;05:00 - 06:00;34;20;;;;;;;
04.07.2020;06:00 - 07:00;44;31;;;;;;;
04.07.2020;07:00 - 08:00;103;123;;;;;;;
04.07.2020;08:00 - 09:00;193;274;;;;;;;
04.07.2020;09:00 - 10:00;237;374;;;;;;;
04.07.2020;10:00 - 11:00;292;388;;;;;;;
04.07.2020;11:00 - 12:00;361;430;;;;;;;
04.07.2020;12:00 - 13:00;328;414;;;;;;;
04.07.2020;13:00 - 14:00;334;364;;;;;;;
04.07.2020;14:00 - 15:00;359;444;;;;;;;
04.07.2020;15:00 - 16:00;362;402;;;;;;;
04.07.2020;16:00 - 17:00;368;343;;;;;;;
04.07.2020;17:00 - 18:00;338;354;;;;;;;
04.07.2020;18:00 - 19:00;330;308;;;;;;;
04.07.2020;19:00 - 20:00;359;292;;;;;;;
04.07.2020;20:00 - 21:00;333;202;;;;;;;
04.07.2020;21:00 - 22:00;251;161;;;;;;;
04.07.2020;22:00 - 23:00;244;131;;;;;;;
04.07.2020;23:00 - 00:00;167;104;;;;;;;
05.07.2020;00:00 - 01:00;132;68;;;;;;;
05.07.2020;01:00 - 02:00;101;48;;;;;;;
05.07.2020;02:00 - 03:00;54;24;;;;;;;
05.07.2020;03:00 - 04:00;34;10;;;;;;;
05.07.2020;04:00 - 05:00;25;13;;;;;;;
05.07.2020;05:00 - 06:00;25;13;;;;;;;
05.07.2020;06:00 - 07:00;35;16;;;;;;;
05.07.2020;07:00 - 08:00;61;39;;;;;;;
05.07.2020;08:00 - 09:00;114;73;;;;;;;
05.07.2020;09:00 - 10:00;169;157;;;;;;;
05.07.2020;10:00 - 11:00;189;225;;;;;;;
05.07.2020;11:00 - 12:00;235;286;;;;;;;
05.07.2020;12:00 - 13:00;209;320;;;;;;;
05.07.2020;13:00 - 14:00;242;315;;;;;;;
05.07.2020;14:00 - 15:00;298;305;;;;;;;
05.07.2020;15:00 - 16:00;292;287;;;;;;;
05.07.2020;16:00 - 17:00;301;323;;;;;;;
05.07.2020;17:00 - 18:00;302;357;;;;;;;
05.07.2020;18:00 - 19:00;345;328;;;;;;;
05.07.2020;19:00 - 20:00;333;280;;;;;;;
05.07.2020;20:00 - 21:00;305;202;;;;;;;
05.07.2020;21:00 - 22:00;264;139;;;;;;;
05.07.2020;22:00 - 23:00;189;97;;;;;;;
05.07.2020;23:00 - 00:00;98;59;;;;;;;
06.07.2020;00:00 - 01:00;57;29;;;;;;;
06.07.2020;01:00 - 02:00;20;10;;;;;;;
06.07.2020;02:00 - 03:00;11;3;;;;;;;
06.07.2020;03:00 - 04:00;10;1;;;;;;;
06.07.2020;04:00 - 05:00;25;5;;;;;;;
06.07.2020;05:00 - 06:00;75;18;;;;;;;
06.07.2020;06:00 - 07:00;189;62;;;;;;;
06.07.2020;07:00 - 08:00;263;123;;;;;;;
06.07.2020;08:00 - 09:00;215;216;;;;;;;
06.07.2020;09:00 - 10:00;190;346;;;;;;;
06.07.2020;10:00 - 11:00;252;340;;;;;;;
06.07.2020;11:00 - 12:00;287;371;;;;;;;
06.07.2020;12:00 - 13:00;346;333;;;;;;;
06.07.2020;13:00 - 14:00;328;348;;;;;;;
06.07.2020;14:00 - 15:00;300;344;;;;;;;
06.07.2020;15:00 - 16:00;331;371;;;;;;;
06.07.2020;16:00 - 17:00;368;408;;;;;;;
06.07.2020;17:00 - 18:00;390;462;;;;;;;
06.07.2020;18:00 - 19:00;385;384;;;;;;;
06.07.2020;19:00 - 20:00;344;209;;;;;;;
06.07.2020;20:00 - 21:00;271;145;;;;;;;
06.07.2020;21:00 - 22:00;168;96;;;;;;;
06.07.2020;22:00 - 23:00;121;59;;;;;;;
06.07.2020;23:00 - 00:00;57;33;;;;;;;
07.07.2020;00:00 - 01:00;28;20;;;;;;;
07.07.2020;01:00 - 02:00;13;5;;;;;;;
07.07.2020;02:00 - 03:00;11;0;;;;;;;
07.07.2020;03:00 - 04:00;9;3;;;;;;;
07.07.2020;04:00 - 05:00;22;4;;;;;;;
07.07.2020;05:00 - 06:00;72;11;;;;;;;
07.07.2020;06:00 - 07:00;182;66;;;;;;;
07.07.2020;07:00 - 08:00;285;142;;;;;;;
07.07.2020;08:00 - 09:00;243;209;;;;;;;
07.07.2020;09:00 - 10:00;224;322;;;;;;;
07.07.2020;10:00 - 11:00;271;276;;;;;;;
07.07.2020;11:00 - 12:00;268;282;;;;;;;
07.07.2020;12:00 - 13:00;307;337;;;;;;;
07.07.2020;13:00 - 14:00;292;319;;;;;;;
07.07.2020;14:00 - 15:00;273;304;;;;;;;
07.07.2020;15:00 - 16:00;322;348;;;;;;;
07.07.2020;16:00 - 17:00;335;431;;;;;;;
07.07.2020;17:00 - 18:00;365;485;;;;;;;
07.07.2020;18:00 - 19:00;383;396;;;;;;;
07.07.2020;19:00 - 20:00;286;260;;;;;;;
07.07.2020;20:00 - 21:00;274;162;;;;;;;
07.07.2020;21:00 - 22:00;235;100;;;;;;;
07.07.2020;22:00 - 23:00;174;72;;;;;;;
07.07.2020;23:00 - 00:00;95;37;;;;;;;
08.07.2020;00:00 - 01:00;33;18;;;;;;;
08.07.2020;01:00 - 02:00;19;6;;;;;;;
08.07.2020;02:00 - 03:00;7;1;;;;;;;
08.07.2020;03:00 - 04:00;6;4;;;;;;;
08.07.2020;04:00 - 05:00;21;0;;;;;;;
08.07.2020;05:00 - 06:00;75;10;;;;;;;
08.07.2020;06:00 - 07:00;185;50;;;;;;;
08.07.2020;07:00 - 08:00;254;136;;;;;;;
08.07.2020;08:00 - 09:00;228;220;;;;;;;
08.07.2020;09:00 - 10:00;228;273;;;;;;;
08.07.2020;10:00 - 11:00;252;279;;;;;;;
08.07.2020;11:00 - 12:00;249;319;;;;;;;
08.07.2020;12:00 - 13:00;278;318;;;;;;;
08.07.2020;13:00 - 14:00;280;260;;;;;;;
08.07.2020;14:00 - 15:00;287;318;;;;;;;
08.07.2020;15:00 - 16:00;291;325;;;;;;;
08.07.2020;16:00 - 17:00;315;379;;;;;;;
08.07.2020;17:00 - 18:00;343;454;;;;;;;
08.07.2020;18:00 - 19:00;326;360;;;;;;;
08.07.2020;19:00 - 20:00;258;255;;;;;;;
08.07.2020;20:00 - 21:00;291;159;;;;;;;
08.07.2020;21:00 - 22:00;209;104;;;;;;;
08.07.2020;22:00 - 23:00;182;100;;;;;;;
08.07.2020;23:00 - 00:00;103;44;;;;;;;
09.07.2020;00:00 - 01:00;33;13;;;;;;;
09.07.2020;01:00 - 02:00;23;7;;;;;;;
09.07.2020;02:00 - 03:00;9;4;;;;;;;
09.07.2020;03:00 - 04:00;7;5;;;;;;;
09.07.2020;04:00 - 05:00;22;2;;;;;;;
09.07.2020;05:00 - 06:00;80;13;;;;;;;
09.07.2020;06:00 - 07:00;179;50;;;;;;;
09.07.2020;07:00 - 08:00;257;138;;;;;;;
09.07.2020;08:00 - 09:00;241;219;;;;;;;
09.07.2020;09:00 - 10:00;203;297;;;;;;;
09.07.2020;10:00 - 11:00;245;318;;;;;;;
09.07.2020;11:00 - 12:00;289;327;;;;;;;
09.07.2020;12:00 - 13:00;322;285;;;;;;;
09.07.2020;13:00 - 14:00;305;282;;;;;;;
09.07.2020;14:00 - 15:00;290;380;;;;;;;
09.07.2020;15:00 - 16:00;322;323;;;;;;;
09.07.2020;16:00 - 17:00;324;393;;;;;;;
09.07.2020;17:00 - 18:00;334;499;;;;;;;
09.07.2020;18:00 - 19:00;363;450;;;;;;;
09.07.2020;19:00 - 20:00;307;276;;;;;;;
09.07.2020;20:00 - 21:00;330;179;;;;;;;
09.07.2020;21:00 - 22:00;316;111;;;;;;;
09.07.2020;22:00 - 23:00;217;93;;;;;;;
09.07.2020;23:00 - 00:00;102;48;;;;;;;
10.07.2020;00:00 - 01:00;60;23;;;;;;;
10.07.2020;01:00 - 02:00;15;13;;;;;;;
10.07.2020;02:00 - 03:00;16;6;;;;;;;
10.07.2020;03:00 - 04:00;10;1;;;;;;;
10.07.2020;04:00 - 05:00;24;9;;;;;;;
10.07.2020;05:00 - 06:00;55;15;;;;;;;
10.07.2020;06:00 - 07:00;151;53;;;;;;;
10.07.2020;07:00 - 08:00;239;153;;;;;;;
10.07.2020;08:00 - 09:00;240;260;;;;;;;
10.07.2020;09:00 - 10:00;218;360;;;;;;;
10.07.2020;10:00 - 11:00;254;339;;;;;;;
10.07.2020;11:00 - 12:00;320;356;;;;;;;
10.07.2020;12:00 - 13:00;359;353;;;;;;;
10.07.2020;13:00 - 14:00;366;319;;;;;;;
10.07.2020;14:00 - 15:00;339;348;;;;;;;
10.07.2020;15:00 - 16:00;345;413;;;;;;;
10.07.2020;16:00 - 17:00;349;437;;;;;;;
10.07.2020;17:00 - 18:00;399;403;;;;;;;
10.07.2020;18:00 - 19:00;351;386;;;;;;;
10.07.2020;19:00 - 20:00;347;295;;;;;;;
10.07.2020;20:00 - 21:00;331;212;;;;;;;
10.07.2020;21:00 - 22:00;235;134;;;;;;;
10.07.2020;22:00 - 23:00;213;125;;;;;;;
10.07.2020;23:00 - 00:00;155;92;;;;;;;
11.07.2020;00:00 - 01:00;116;71;;;;;;;
11.07.2020;01:00 - 02:00;48;28;;;;;;;
11.07.2020;02:00 - 03:00;27;11;;;;;;;
11.07.2020;03:00 - 04:00;30;13;;;;;;;
11.07.2020;04:00 - 05:00;19;12;;;;;;;
11.07.2020;05:00 - 06:00;21;12;;;;;;;
11.07.2020;06:00 - 07:00;36;30;;;;;;;
11.07.2020;07:00 - 08:00;51;77;;;;;;;
11.07.2020;08:00 - 09:00;116;248;;;;;;;
11.07.2020;09:00 - 10:00;185;430;;;;;;;
11.07.2020;10:00 - 11:00;273;433;;;;;;;
11.07.2020;11:00 - 12:00;339;426;;;;;;;
11.07.2020;12:00 - 13:00;304;453;;;;;;;
11.07.2020;13:00 - 14:00;357;425;;;;;;;
11.07.2020;14:00 - 15:00;352;447;;;;;;;
11.07.2020;15:00 - 16:00;371;421;;;;;;;
11.07.2020;16:00 - 17:00;364;377;;;;;;;
11.07.2020;17:00 - 18:00;341;442;;;;;;;
11.07.2020;18:00 - 19:00;336;330;;;;;;;
11.07.2020;19:00 - 20:00;335;257;;;;;;;
11.07.2020;20:00 - 21:00;372;193;;;;;;;
11.07.2020;21:00 - 22:00;280;128;;;;;;;
11.07.2020;22:00 - 23:00;274;119;;;;;;;
11.07.2020;23:00 - 00:00;172;83;;;;;;;
12.07.2020;00:00 - 01:00;113;68;;;;;;;
12.07.2020;01:00 - 02:00;98;48;;;;;;;
12.07.2020;02:00 - 03:00;63;39;;;;;;;
12.07.2020;03:00 - 04:00;38;21;;;;;;;
12.07.2020;04:00 - 05:00;21;20;;;;;;;
12.07.2020;05:00 - 06:00;15;19;;;;;;;
12.07.2020;06:00 - 07:00;33;11;;;;;;;
12.07.2020;07:00 - 08:00;72;31;;;;;;;
12.07.2020;08:00 - 09:00;126;71;;;;;;;
12.07.2020;09:00 - 10:00;147;148;;;;;;;
12.07.2020;10:00 - 11:00;189;219;;;;;;;
12.07.2020;11:00 - 12:00;210;287;;;;;;;
12.07.2020;12:00 - 13:00;234;304;;;;;;;
12.07.2020;13:00 - 14:00;227;300;;;;;;;
12.07.2020;14:00 - 15:00;267;322;;;;;;;
12.07.2020;15:00 - 16:00;282;295;;;;;;;
12.07.2020;16:00 - 17:00;286;293;;;;;;;
12.07.2020;17:00 - 18:00;303;336;;;;;;;
12.07.2020;18:00 - 19:00;399;385;;;;;;;
12.07.2020;19:00 - 20:00;338;297;;;;;;;
12.07.2020;20:00 - 21:00;335;196;;;;;;;
12.07.2020;21:00 - 22:00;274;141;;;;;;;
12.07.2020;22:00 - 23:00;179;87;;;;;;;
12.07.2020;23:00 - 00:00;78;48;;;;;;;
13.07.2020;00:00 - 01:00;54;18;;;;;;;
13.07.2020;01:00 - 02:00;24;9;;;;;;;
13.07.2020;02:00 - 03:00;15;7;;;;;;;
13.07.2020;03:00 - 04:00;13;2;;;;;;;
13.07.2020;04:00 - 05:00;21;2;;;;;;;
13.07.2020;05:00 - 06:00;73;15;;;;;;;
13.07.2020;06:00 - 07:00;186;35;;;;;;;
13.07.2020;07:00 - 08:00;264;136;;;;;;;
13.07.2020;08:00 - 09:00;188;218;;;;;;;
13.07.2020;09:00 - 10:00;207;293;;;;;;;
13.07.2020;10:00 - 11:00;232;347;;;;;;;
13.07.2020;11:00 - 12:00;263;368;;;;;;;
13.07.2020;12:00 - 13:00;271;336;;;;;;;
13.07.2020;13:00 - 14:00;292;306;;;;;;;
13.07.2020;14:00 - 15:00;343;331;;;;;;;
13.07.2020;15:00 - 16:00;361;353;;;;;;;
13.07.2020;16:00 - 17:00;388;418;;;;;;;
13.07.2020;17:00 - 18:00;378;534;;;;;;;
13.07.2020;18:00 - 19:00;369;324;;;;;;;
13.07.2020;19:00 - 20:00;302;250;;;;;;;
13.07.2020;20:00 - 21:00;272;160;;;;;;;
13.07.2020;21:00 - 22:00;261;98;;;;;;;
13.07.2020;22:00 - 23:00;168;86;;;;;;;
13.07.2020;23:00 - 00:00;86;48;;;;;;;
14.07.2020;00:00 - 01:00;31;30;;;;;;;
14.07.2020;01:00 - 02:00;9;8;;;;;;;
14.07.2020;02:00 - 03:00;15;5;;;;;;;
14.07.2020;03:00 - 04:00;7;2;;;;;;;
14.07.2020;04:00 - 05:00;20;5;;;;;;;
14.07.2020;05:00 - 06:00;54;20;;;;;;;
14.07.2020;06:00 - 07:00;174;39;;;;;;;
14.07.2020;07:00 - 08:00;274;137;;;;;;;
14.07.2020;08:00 - 09:00;216;235;;;;;;;
14.07.2020;09:00 - 10:00;205;276;;;;;;;
14.07.2020;10:00 - 11:00;209;279;;;;;;;
14.07.2020;11:00 - 12:00;260;356;;;;;;;
14.07.2020;12:00 - 13:00;272;320;;;;;;;
14.07.2020;13:00 - 14:00;294;226;;;;;;;
14.07.2020;14:00 - 15:00;324;314;;;;;;;
14.07.2020;15:00 - 16:00;363;334;;;;;;;
14.07.2020;16:00 - 17:00;338;363;;;;;;;
14.07.2020;17:00 - 18:00;368;467;;;;;;;
14.07.2020;18:00 - 19:00;376;411;;;;;;;
14.07.2020;19:00 - 20:00;328;247;;;;;;;
14.07.2020;20:00 - 21:00;253;154;;;;;;;
14.07.2020;21:00 - 22:00;196;103;;;;;;;
14.07.2020;22:00 - 23:00;176;80;;;;;;;
14.07.2020;23:00 - 00:00;67;48;;;;;;;
15.07.2020;00:00 - 01:00;35;19;;;;;;;
15.07.2020;01:00 - 02:00;21;5;;;;;;;
15.07.2020;02:00 - 03:00;9;7;;;;;;;
15.07.2020;03:00 - 04:00;9;6;;;;;;;
15.07.2020;04:00 - 05:00;21;5;;;;;;;
15.07.2020;05:00 - 06:00;62;9;;;;;;;
15.07.2020;06:00 - 07:00;155;37;;;;;;;
15.07.2020;07:00 - 08:00;241;126;;;;;;;
15.07.2020;08:00 - 09:00;223;221;;;;;;;
15.07.2020;09:00 - 10:00;210;344;;;;;;;
15.07.2020;10:00 - 11:00;254;372;;;;;;;
15.07.2020;11:00 - 12:00;287;446;;;;;;;
15.07.2020;12:00 - 13:00;318;387;;;;;;;
15.07.2020;13:00 - 14:00;279;344;;;;;;;
15.07.2020;14:00 - 15:00;358;363;;;;;;;
15.07.2020;15:00 - 16:00;332;397;;;;;;;
15.07.2020;16:00 - 17:00;400;449;;;;;;;
15.07.2020;17:00 - 18:00;413;571;;;;;;;
15.07.2020;18:00 - 19:00;384;428;;;;;;;
15.07.2020;19:00 - 20:00;316;279;;;;;;;
15.07.2020;20:00 - 21:00;332;153;;;;;;;
15.07.2020;21:00 - 22:00;216;119;;;;;;;
15.07.2020;22:00 - 23:00;162;66;;;;;;;
15.07.2020;23:00 - 00:00;84;42;;;;;;;
16.07.2020;00:00 - 01:00;36;32;;;;;;;
16.07.2020;01:00 - 02:00;12;9;;;;;;;
16.07.2020;02:00 - 03:00;22;7;;;;;;;
16.07.2020;03:00 - 04:00;8;2;;;;;;;
16.07.2020;04:00 - 05:00;30;7;;;;;;;
16.07.2020;05:00 - 06:00;62;13;;;;;;;
16.07.2020;06:00 - 07:00;161;48;;;;;;;
16.07.2020;07:00 - 08:00;266;116;;;;;;;
16.07.2020;08:00 - 09:00;225;230;;;;;;;
16.07.2020;09:00 - 10:00;206;335;;;;;;;
16.07.2020;10:00 - 11:00;250;390;;;;;;;
16.07.2020;11:00 - 12:00;322;398;;;;;;;
16.07.2020;12:00 - 13:00;264;348;;;;;;;
16.07.2020;13:00 - 14:00;346;334;;;;;;;
16.07.2020;14:00 - 15:00;355;387;;;;;;;
16.07.2020;15:00 - 16:00;404;411;;;;;;;
16.07.2020;16:00 - 17:00;444;433;;;;;;;
16.07.2020;17:00 - 18:00;420;582;;;;;;;
16.07.2020;18:00 - 19:00;362;497;;;;;;;
16.07.2020;19:00 - 20:00;363;308;;;;;;;
16.07.2020;20:00 - 21:00;285;144;;;;;;;
16.07.2020;21:00 - 22:00;278;100;;;;;;;
16.07.2020;22:00 - 23:00;191;86;;;;;;;
16.07.2020;23:00 - 00:00;81;76;;;;;;;
17.07.2020;00:00 - 01:00;50;25;;;;;;;
17.07.2020;01:00 - 02:00;21;12;;;;;;;
17.07.2020;02:00 - 03:00;13;2;;;;;;;
17.07.2020;03:00 - 04:00;11;6;;;;;;;
17.07.2020;04:00 - 05:00;20;7;;;;;;;
17.07.2020;05:00 - 06:00;67;18;;;;;;;
17.07.2020;06:00 - 07:00;153;57;;;;;;;
17.07.2020;07:00 - 08:00;198;125;;;;;;;
17.07.2020;08:00 - 09:00;213;254;;;;;;;
17.07.2020;09:00 - 10:00;210;326;;;;;;;
17.07.2020;10:00 - 11:00;268;350;;;;;;;
17.07.2020;11:00 - 12:00;337;371;;;;;;;
17.07.2020;12:00 - 13:00;336;393;;;;;;;
17.07.2020;13:00 - 14:00;365;344;;;;;;;
17.07.2020;14:00 - 15:00;353;414;;;;;;;
17.07.2020;15:00 - 16:00;407;420;;;;;;;
17.07.2020;16:00 - 17:00;407;452;;;;;;;
17.07.2020;17:00 - 18:00;371;476;;;;;;;
17.07.2020;18:00 - 19:00;394;376;;;;;;;
17.07.2020;19:00 - 20:00;369;285;;;;;;;
17.07.2020;20:00 - 21:00;290;193;;;;;;;
17.07.2020;21:00 - 22:00;253;132;;;;;;;
17.07.2020;22:00 - 23:00;203;111;;;;;;;
17.07.2020;23:00 - 00:00;150;75;;;;;;;
18.07.2020;00:00 - 01:00;85;56;;;;;;;
18.07.2020;01:00 - 02:00;70;27;;;;;;;
18.07.2020;02:00 - 03:00;39;13;;;;;;;
18.07.2020;03:00 - 04:00;24;5;;;;;;;
18.07.2020;04:00 - 05:00;19;13;;;;;;;
18.07.2020;05:00 - 06:00;25;20;;;;;;;
18.07.2020;06:00 - 07:00;43;28;;;;;;;
18.07.2020;07:00 - 08:00;94;88;;;;;;;
18.07.2020;08:00 - 09:00;166;250;;;;;;;
18.07.2020;09:00 - 10:00;252;376;;;;;;;
18.07.2020;10:00 - 11:00;264;376;;;;;;;
18.07.2020;11:00 - 12:00;301;405;;;;;;;
18.07.2020;12:00 - 13:00;344;376;;;;;;;
18.07.2020;13:00 - 14:00;327;384;;;;;;;
18.07.2020;14:00 - 15:00;352;382;;;;;;;
18.07.2020;15:00 - 16:00;355;339;;;;;;;
18.07.2020;16:00 - 17:00;365;370;;;;;;;
18.07.2020;17:00 - 18:00;400;317;;;;;;;
18.07.2020;18:00 - 19:00;393;359;;;;;;;
18.07.2020;19:00 - 20:00;337;242;;;;;;;
18.07.2020;20:00 - 21:00;374;234;;;;;;;
18.07.2020;21:00 - 22:00;308;147;;;;;;;
18.07.2020;22:00 - 23:00;282;100;;;;;;;
18.07.2020;23:00 - 00:00;178;113;;;;;;;
19.07.2020;00:00 - 01:00;124;56;;;;;;;
19.07.2020;01:00 - 02:00;73;35;;;;;;;
19.07.2020;02:00 - 03:00;61;29;;;;;;;
19.07.2020;03:00 - 04:00;55;15;;;;;;;
19.07.2020;04:00 - 05:00;21;14;;;;;;;
19.07.2020;05:00 - 06:00;22;12;;;;;;;
19.07.2020;06:00 - 07:00;38;17;;;;;;;
19.07.2020;07:00 - 08:00;62;24;;;;;;;
19.07.2020;08:00 - 09:00;110;91;;;;;;;
19.07.2020;09:00 - 10:00;162;171;;;;;;;
19.07.2020;10:00 - 11:00;190;238;;;;;;;
19.07.2020;11:00 - 12:00;220;306;;;;;;;
19.07.2020;12:00 - 13:00;260;350;;;;;;;
19.07.2020;13:00 - 14:00;256;322;;;;;;;
19.07.2020;14:00 - 15:00;274;276;;;;;;;
19.07.2020;15:00 - 16:00;271;291;;;;;;;
19.07.2020;16:00 - 17:00;268;283;;;;;;;
19.07.2020;17:00 - 18:00;298;368;;;;;;;
19.07.2020;18:00 - 19:00;351;333;;;;;;;
19.07.2020;19:00 - 20:00;320;285;;;;;;;
19.07.2020;20:00 - 21:00;314;192;;;;;;;
19.07.2020;21:00 - 22:00;225;160;;;;;;;
19.07.2020;22:00 - 23:00;200;92;;;;;;;
19.07.2020;23:00 - 00:00;98;43;;;;;;;
20.07.2020;00:00 - 01:00;35;18;;;;;;;
20.07.2020;01:00 - 02:00;19;7;;;;;;;
20.07.2020;02:00 - 03:00;19;3;;;;;;;
20.07.2020;03:00 - 04:00;5;7;;;;;;;
20.07.2020;04:00 - 05:00;26;4;;;;;;;
20.07.2020;05:00 - 06:00;69;17;;;;;;;
20.07.2020;06:00 - 07:00;174;37;;;;;;;
20.07.2020;07:00 - 08:00;260;124;;;;;;;
20.07.2020;08:00 - 09:00;201;210;;;;;;;
20.07.2020;09:00 - 10:00;237;341;;;;;;;
20.07.2020;10:00 - 11:00;259;393;;;;;;;
20.07.2020;11:00 - 12:00;279;359;;;;;;;
20.07.2020;12:00 - 13:00;292;353;;;;;;;
20.07.2020;13:00 - 14:00;312;305;;;;;;;
20.07.2020;14:00 - 15:00;323;338;;;;;;;
20.07.2020;15:00 - 16:00;332;395;;;;;;;
20.07.2020;16:00 - 17:00;403;362;;;;;;;
20.07.2020;17:00 - 18:00;380;459;;;;;;;
20.07.2020;18:00 - 19:00;348;372;;;;;;;
20.07.2020;19:00 - 20:00;314;245;;;;;;;
20.07.2020;20:00 - 21:00;276;149;;;;;;;
20.07.2020;21:00 - 22:00;228;125;;;;;;;
20.07.2020;22:00 - 23:00;169;75;;;;;;;
20.07.2020;23:00 - 00:00;72;38;;;;;;;
21.07.2020;00:00 - 01:00;40;16;;;;;;;
21.07.2020;01:00 - 02:00;16;8;;;;;;;
21.07.2020;02:00 - 03:00;6;4;;;;;;;
21.07.2020;03:00 - 04:00;9;0;;;;;;;
21.07.2020;04:00 - 05:00;26;7;;;;;;;
21.07.2020;05:00 - 06:00;61;14;;;;;;;
21.07.2020;06:00 - 07:00;179;53;;;;;;;
21.07.2020;07:00 - 08:00;245;124;;;;;;;
21.07.2020;08:00 - 09:00;203;228;;;;;;;
21.07.2020;09:00 - 10:00;223;348;;;;;;;
21.07.2020;10:00 - 11:00;249;343;;;;;;;
21.07.2020;11:00 - 12:00;275;354;;;;;;;
21.07.2020;12:00 - 13:00;298;369;;;;;;;
21.07.2020;13:00 - 14:00;326;331;;;;;;;
21.07.2020;14:00 - 15:00;343;326;;;;;;;
21.07.2020;15:00 - 16:00;374;386;;;;;;;
21.07.2020;16:00 - 17:00;382;426;;;;;;;
21.07.2020;17:00 - 18:00;416;468;;;;;;;
21.07.2020;18:00 - 19:00;352;412;;;;;;;
21.07.2020;19:00 - 20:00;339;228;;;;;;;
21.07.2020;20:00 - 21:00;314;168;;;;;;;
21.07.2020;21:00 - 22:00;221;90;;;;;;;
21.07.2020;22:00 - 23:00;155;58;;;;;;;
21.07.2020;23:00 - 00:00;80;45;;;;;;;
22.07.2020;00:00 - 01:00;31;16;;;;;;;
22.07.2020;01:00 - 02:00;17;9;;;;;;;
22.07.2020;02:00 - 03:00;17;8;;;;;;;
22.07.2020;03:00 - 04:00;9;2;;;;;;;
22.07.2020;04:00 - 05:00;25;2;;;;;;;
22.07.2020;05:00 - 06:00;60;12;;;;;;;
22.07.2020;06:00 - 07:00;150;44;;;;;;;
22.07.2020;07:00 - 08:00;238;117;;;;;;;
22.07.2020;08:00 - 09:00;210;224;;;;;;;
22.07.2020;09:00 - 10:00;188;348;;;;;;;
22.07.2020;10:00 - 11:00;253;361;;;;;;;
22.07.2020;11:00 - 12:00;295;424;;;;;;;
22.07.2020;12:00 - 13:00;291;390;;;;;;;
22.07.2020;13:00 - 14:00;357;344;;;;;;;
22.07.2020;14:00 - 15:00;349;383;;;;;;;
22.07.2020;15:00 - 16:00;395;416;;;;;;;
22.07.2020;16:00 - 17:00;393;417;;;;;;;
22.07.2020;17:00 - 18:00;429;509;;;;;;;
22.07.2020;18:00 - 19:00;380;446;;;;;;;
22.07.2020;19:00 - 20:00;355;254;;;;;;;
22.07.2020;20:00 - 21:00;329;167;;;;;;;
22.07.2020;21:00 - 22:00;238;108;;;;;;;
22.07.2020;22:00 - 23:00;199;88;;;;;;;
22.07.2020;23:00 - 00:00;82;47;;;;;;;
23.07.2020;00:00 - 01:00;37;24;;;;;;;
23.07.2020;01:00 - 02:00;18;6;;;;;;;
23.07.2020;02:00 - 03:00;12;3;;;;;;;
23.07.2020;03:00 - 04:00;8;6;;;;;;;
23.07.2020;04:00 - 05:00;18;1;;;;;;;
23.07.2020;05:00 - 06:00;73;19;;;;;;;
23.07.2020;06:00 - 07:00;159;47;;;;;;;
23.07.2020;07:00 - 08:00;254;122;;;;;;;
23.07.2020;08:00 - 09:00;221;189;;;;;;;
23.07.2020;09:00 - 10:00;181;323;;;;;;;
23.07.2020;10:00 - 11:00;246;326;;;;;;;
23.07.2020;11:00 - 12:00;284;428;;;;;;;
23.07.2020;12:00 - 13:00;314;368;;;;;;;
23.07.2020;13:00 - 14:00;320;368;;;;;;;
23.07.2020;14:00 - 15:00;364;328;;;;;;;
23.07.2020;15:00 - 16:00;355;399;;;;;;;
23.07.2020;16:00 - 17:00;397;415;;;;;;;
23.07.2020;17:00 - 18:00;450;490;;;;;;;
23.07.2020;18:00 - 19:00;382;460;;;;;;;
23.07.2020;19:00 - 20:00;332;287;;;;;;;
23.07.2020;20:00 - 21:00;325;166;;;;;;;
23.07.2020;21:00 - 22:00;284;117;;;;;;;
23.07.2020;22:00 - 23:00;204;90;;;;;;;
23.07.2020;23:00 - 00:00;137;49;;;;;;;
24.07.2020;00:00 - 01:00;54;32;;;;;;;
24.07.2020;01:00 - 02:00;26;15;;;;;;;
24.07.2020;02:00 - 03:00;15;9;;;;;;;
24.07.2020;03:00 - 04:00;9;2;;;;;;;
24.07.2020;04:00 - 05:00;24;4;;;;;;;
24.07.2020;05:00 - 06:00;65;19;;;;;;;
24.07.2020;06:00 - 07:00;158;36;;;;;;;
24.07.2020;07:00 - 08:00;198;139;;;;;;;
24.07.2020;08:00 - 09:00;202;256;;;;;;;
24.07.2020;09:00 - 10:00;248;390;;;;;;;
24.07.2020;10:00 - 11:00;317;394;;;;;;;
24.07.2020;11:00 - 12:00;309;461;;;;;;;
24.07.2020;12:00 - 13:00;346;453;;;;;;;
24.07.2020;13:00 - 14:00;417;406;;;;;;;
24.07.2020;14:00 - 15:00;370;432;;;;;;;
24.07.2020;15:00 - 16:00;382;495;;;;;;;
24.07.2020;16:00 - 17:00;432;459;;;;;;;
24.07.2020;17:00 - 18:00;452;486;;;;;;;
24.07.2020;18:00 - 19:00;417;439;;;;;;;
24.07.2020;19:00 - 20:00;410;283;;;;;;;
24.07.2020;20:00 - 21:00;349;204;;;;;;;
24.07.2020;21:00 - 22:00;279;140;;;;;;;
24.07.2020;22:00 - 23:00;239;108;;;;;;;
24.07.2020;23:00 - 00:00;121;67;;;;;;;
25.07.2020;00:00 - 01:00;88;56;;;;;;;
25.07.2020;01:00 - 02:00;51;34;;;;;;;
25.07.2020;02:00 - 03:00;45;13;;;;;;;
25.07.2020;03:00 - 04:00;25;9;;;;;;;
25.07.2020;04:00 - 05:00;20;6;;;;;;;
25.07.2020;05:00 - 06:00;30;15;;;;;;;
25.07.2020;06:00 - 07:00;41;31;;;;;;;
25.07.2020;07:00 - 08:00;94;106;;;;;;;
25.07.2020;08:00 - 09:00;190;252;;;;;;;
25.07.2020;09:00 - 10:00;249;357;;;;;;;
25.07.2020;10:00 - 11:00;304;425;;;;;;;
25.07.2020;11:00 - 12:00;324;401;;;;;;;
25.07.2020;12:00 - 13:00;310;371;;;;;;;
25.07.2020;13:00 - 14:00;324;332;;;;;;;
25.07.2020;14:00 - 15:00;368;399;;;;;;;
25.07.2020;15:00 - 16:00;394;366;;;;;;;
25.07.2020;16:00 - 17:00;354;340;;;;;;;
25.07.2020;17:00 - 18:00;384;363;;;;;;;
25.07.2020;18:00 - 19:00;383;345;;;;;;;
25.07.2020;19:00 - 20:00;390;313;;;;;;;